Left ArrowRight Arrow

44.8408, -93.29828

Hourly Observations for June 12, 2024

Temp ( °F °C ) Dew Point ( °F °C ) Humidity (%) Winds ( mph kmh ) Pressure ( in mb ) Visibility ( mi km ) Precip ( " mm )
12:53 am 00:53 Clear 69 20.6 51 10.6 53 53 W 6 9 29.80 1009 10 16 0.00 0.00
1:53 am 01:53 Clear 68 20 51 10.6 55 55 SSE 3 6 29.80 1009 10 16 0.00 0.00
2:53 am 02:53 Clear 66 18.9 52 11.1 61 61 Calm 29.81 1010 10 16 0.00 0.00
3:53 am 03:53 Clear 64 17.8 53 11.7 67 67 Calm 29.81 1010 10 16 0.00 0.00
4:53 am 04:53 Clear 63 17.2 53 11.7 70 70 Calm 29.80 1009 10 16 0.00 0.00
5:53 am 05:53 Sunny 64 17.8 54 12.2 70 70 VRB 3 6 29.80 1009 10 16 0.00 0.00
6:53 am 06:53 Partly Cloudy 64 17.8 53 11.7 67 67 SE 7 11 29.76 1008 10 16 0.00 0.00
7:53 am 07:53 Mostly Cloudy 72 22.2 51 10.6 48 48 SSE 10 17 29.75 1008 10 16 0.00 0.00
8:53 am 08:53 Cloudy 73 22.8 51 10.6 46 46 WNW 8 13 29.79 1009 10 16 0.00 0.00
9:53 am 09:53 Cloudy with Light Rain 68 20 57 13.9 68 68 NNE 8 13 29.79 1009 7 11 0.01 0.25
10:17 am 10:17 Cloudy with Nearby Thunderstorms 66 18.9 58 14.4 75 75 NNE 8 13 29.83 1010 7 11 0.02 0.51
10:24 am 10:24 Cloudy with Thunderstorms 67 19.4 57 13.9 71 71 VRB 7 11 29.84 1010 7 11 0.02 0.51
10:38 am 10:38 Cloudy with Nearby Thunderstorms 64 17.8 59 15 84 84 S 17 28 29.84 1010 3 5 0.05 1.27
10:45 am 10:45 Cloudy with Nearby Thunderstorms 63 17.2 59 15 87 87 S 22 35 29.81 1009 4 6 0.09 2.29
10:53 am 10:53 Cloudy with Rain 64 17.8 59 15 84 84 S 26 43 29.78 1008 5 8 0.12 3.05
11:53 am 11:53 Mostly Cloudy 65 18.3 60 15.6 84 84 SSE 13 20 29.74 1007 10 16 0.03 0.76
12:53 pm 12:53 Mostly Cloudy 67 19.4 60 15.6 79 79 S 10 17 29.75 1007 10 16 0.00 0.00
1:53 pm 13:53 Mostly Cloudy 68 20 61 16.1 78 78 S 12 19 29.75 1008 10 16 0.00 0.00
2:04 pm 14:04 Mostly Cloudy with Nearby Thunderstorms 68 20 61 16.1 78 78 S 14 22 29.74 1007 10 16 0.00 0.00
2:53 pm 14:53 Mostly Cloudy 72 22.2 65 18.3 79 79 S 10 17 29.75 1008 10 16 0.02 0.51
3:53 pm 15:53 Mostly Cloudy 77 25 63 17.2 62 62 S 14 22 29.72 1007 10 16 0.00 0.00
4:53 pm 16:53 Mostly Cloudy 79 26.1 62 16.7 56 56 S 13 20 29.70 1006 10 16 0.00 0.00
5:53 pm 17:53 Partly Cloudy 80 26.7 63 17.2 56 56 SSW 13 20 29.67 1005 10 16 0.00 0.00
6:53 pm 18:53 Mostly Cloudy 80 26.7 63 17.2 56 56 SSW 16 26 29.64 1004 10 16 0.00 0.00
7:53 pm 19:53 Mostly Cloudy 78 25.6 64 17.8 62 62 SSW 12 19 29.64 1004 10 16 0.00 0.00
8:53 pm 20:53 Mostly Cloudy 79 26.1 63 17.2 58 58 SW 12 19 29.66 1004 10 16 0.00 0.00
9:53 pm 21:53 Mostly Cloudy 77 25 63 17.2 62 62 ENE 6 9 29.69 1006 10 16 0.00 0.00
11:01 pm 23:01 Cloudy with Strong Thunderstorms 71 21.7 67 19.4 87 87 ESE 10 17 29.66 1005 1 2 0.17 4.32
11:07 pm 23:07 Cloudy with Thunderstorms 73 22.8 66 18.9 79 79 VRB 5 7 29.66 1004 2 3 0.24 6.10
11:10 pm 23:10 Cloudy with Thunderstorms 73 22.8 66 18.9 79 79 ENE 5 7 29.65 1004 3 5 0.27 6.86
11:39 pm 23:39 Mostly Cloudy with Nearby Thunderstorms 72 22.2 66 18.9 82 82 SSE 7 11 29.66 1004 10 16 0.28 7.11
11:53 pm 23:53 Cloudy 71 21.7 67 19.4 87 87 SSE 7 11 29.70 1006 10 16 0.28 7.11

Powered by Vaisala Xweather